Location: Laguna de la Cañada del Gallo
(40.3974°N, 5.2096°W)
Time: 01:46:31
(UTC+00:00)

CSL-04 Rocket - Pass Details

Date: 18 April 2024
Orbit: 804 x 860 km, 98.8° (Epoch: 25 May)

Event Time Altitude Azimuth Distance (km) Brightness Sun altitude
Exits shadow 20:12:57 - 161° (SSE) 2,694 5.9 -13.1°
Reaches altitude 10° 20:13:30 10° 161° (SSE) 2,478 5.7 -13.2°
Maximum altitude 20:19:01 82° 75° (ENE) 862 3.7 -14.2°
Drops below altitude 10° 20:24:30 10° 348° (NNW) 2,464 6.7 -15.1°
Sets 20:26:51 0° 348° (NNW) 3,395 7.5 -15.5°
